PBO Station Position Time Series. Reference Frame : NAM14
Format Version,1.1.0
4-character ID,CORX
Station name,BurntRidgeCN2006
Begin Date, 2018-09-09
End Date, 2019-10-07
Release Date, 2019-10-08
Reference position, 32.4153752165 North Latitude, -117.2481861491 East Longitude, 74.24625 meters elevation,
Date, North (mm), East (mm), Vertical (mm), North Std. Deviation (mm), East Std. Deviation (mm),              Vertical Std. Deviation (mm), Quality,
2018-09-09,0.00, 0.00, 4.82, 6.23, 3.01, 41.54, repro,
2018-09-10,-0.69, -0.21, 2.83, 6.24, 2.57, 32.58, repro,
2018-09-11,0.06, 0.05, 1.39, 14.57, 3.91, 43.92, repro,
2018-09-12,-0.36, 0.23, 2.87, 16.92, 5.49, 68.32, repro,
2018-09-13,-0.64, 0.30, -0.81, 3.82, 2.46, 21.67, repro,
2018-09-14,-0.97, -1.13, -1.61, 4.96, 2.36, 31.48, repro,
2018-09-15,-1.01, 0.36, -1.52, 4.52, 2.01, 20.88, repro,
2018-09-16,-0.51, 1.12, -3.08, 14.45, 6.25, 75.18, repro,
2018-09-17,-0.01, 0.67, -4.75, 12.66, 5.09, 55.90, repro,
2018-09-18,-0.58, 1.25, 2.94, 21.79, 5.60, 70.25, repro,
2018-09-19,-2.02, 0.37, 0.07, 9.54, 2.76, 34.24, repro,
2018-09-20,-1.21, 0.89, -7.29, 15.33, 3.92, 45.57, repro,
2018-09-21,-0.89, 1.61, -2.00, 23.95, 6.84, 144.11, repro,
2018-09-22,-0.36, 0.60, -10.05, 13.35, 4.73, 92.37, repro,
2018-09-23,-0.34, -0.87, -0.56, 5.27, 2.89, 40.20, repro,
2018-09-24,-1.13, -1.16, 0.10, 6.57, 2.85, 46.04, repro,
2018-09-25,-0.80, 0.58, -2.32, 7.80, 4.44, 87.21, repro,
2018-09-26,-0.27, 0.05, -5.79, 6.54, 2.86, 45.72, repro,
2018-09-27,-0.07, 0.17, -0.92, 6.52, 2.86, 45.70, repro,
2018-09-28,-0.37, -1.09, -0.94, 5.73, 2.78, 41.58, repro,
2018-09-29,-0.47, -1.20, 0.68, 7.79, 4.41, 87.28, repro,
2018-09-30,-0.93, -0.09, -3.49, 6.07, 3.45, 41.02, repro,
2018-10-01,-0.67, -0.85, -1.53, 5.29, 3.41, 33.87, repro,
2018-10-02,-0.91, 1.21, -3.87, 5.22, 3.30, 33.63, repro,
2018-10-03,-0.74, 0.44, -3.44, 8.95, 3.90, 48.86, repro,
2018-10-04,-0.18, -0.06, 0.90, 6.13, 3.10, 31.08, repro,
2018-10-05,-0.57, -0.76, -1.76, 6.26, 3.05, 41.50, repro,
2018-10-06,0.15, -1.49, -3.44, 3.97, 2.21, 22.70, repro,
2018-10-07,0.38, -0.54, 1.86, 6.31, 2.87, 34.54, repro,
2018-10-08,-1.81, -0.30, 0.00, 4.32, 2.01, 19.53, repro,
2018-10-09,-98.03, 7274.11, 2.86, 10000.00, 10000.00, 10000.00, repro,
2018-10-10,-0.18, -0.64, -0.39, 6.51, 3.21, 44.25, repro,
2018-10-11,-1.20, -1.00, 2.02, 6.36, 3.08, 42.87, repro,
2018-10-12,-0.01, 0.01, -0.24, 6.05, 3.52, 42.42, repro,
2018-10-13,0.53, -1.16, -3.94, 6.60, 3.33, 43.29, repro,
2018-10-14,-0.65, -0.36, -0.06, 6.31, 3.10, 48.39, repro,
2018-10-15,0.66, 1.29, -6.00, 7.35, 2.93, 47.16, repro,
2018-10-16,0.41, 0.57, -3.86, 5.84, 2.83, 42.25, repro,
2018-10-17,0.26, 0.02, -4.01, 5.30, 2.28, 29.12, repro,
2018-10-18,-1.05, 0.11, -3.58, 3.92, 4.93, 27.04, repro,
2018-10-19,-0.28, -0.26, -3.49, 3.93, 4.95, 27.10, repro,
2018-10-20,0.56, -0.26, 0.17, 8.42, 5.53, 40.79, repro,
2018-10-21,-0.17, -0.23, -3.62, 4.06, 1.98, 21.93, repro,
2018-10-22,-0.67, -0.07, -4.68, 4.15, 2.04, 22.13, repro,
2018-10-23,-0.37, 0.45, -0.54, 3.95, 2.03, 23.19, repro,
2018-10-24,-0.93, -0.55, -1.38, 4.04, 2.02, 19.25, repro,
2018-10-25,-0.67, 0.59, -3.20, 3.85, 2.11, 22.40, repro,
2018-10-26,-0.03, 0.86, -4.58, 6.04, 2.76, 28.80, repro,
2018-10-27,-1.09, 0.01, -3.54, 5.86, 3.27, 39.62, repro,
2018-10-28,-0.40, 0.44, -1.10, 9.88, 3.07, 44.62, repro,
2018-10-29,-1.12, 0.13, -5.40, 8.32, 2.52, 38.58, repro,
2018-10-30,-1.58, -0.23, -3.86, 9.96, 3.14, 45.56, repro,
2018-10-31,0.23, 0.27, -2.05, 9.96, 3.31, 45.42, repro,
2018-11-01,1.08, 0.15, -2.57, 9.78, 3.07, 44.38, repro,
2018-11-02,0.16, 0.28, 4.19, 7.15, 3.52, 37.65, repro,
2018-11-03,-0.67, 0.36, 7.04, 7.29, 2.76, 38.37, repro,
2018-11-04,0.17, 0.59, 7.63, 3.89, 1.95, 20.73, repro,
2018-11-05,0.16, -0.32, 4.02, 3.86, 2.03, 22.42, repro,
2018-11-06,0.05, -0.53, -0.98, 3.99, 1.98, 18.05, repro,
2018-11-07,-0.34, -0.88, -1.97, 3.90, 1.90, 20.63, repro,
2018-11-08,-1.04, -0.02, -1.56, 4.55, 1.99, 21.01, repro,
2018-11-09,-1.06, 0.83, -2.23, 4.02, 2.10, 21.05, repro,
2018-11-10,-0.23, 0.43, -0.45, 8.64, 2.47, 30.25, repro,
2018-11-11,0.29, -0.23, -5.95, 19.19, 6.63, 83.76, repro,
2018-11-12,0.09, -1.03, -7.44, 23.77, 8.12, 103.03, repro,
2018-11-13,-0.03, -0.99, -5.80, 8.42, 2.50, 29.14, repro,
2018-11-14,0.67, -0.04, -1.06, 8.26, 2.34, 28.52, repro,
2018-11-15,-0.66, -0.71, -3.24, 18.68, 6.33, 80.11, repro,
2018-11-16,-1.03, 0.70, -1.40, 23.44, 8.04, 101.99, repro,
2018-11-17,-1.18, 1.25, 0.60, 16.33, 5.85, 73.21, repro,
2018-11-18,0.03, -0.09, 1.65, 24.06, 8.23, 104.44, repro,
2018-11-19,-2.20, 1.98, 21.75, 28.89, 17.94, 227.78, repro,
2018-11-20,-1.71, 0.39, 2.92, 24.03, 8.21, 104.22, repro,
2018-11-21,-1.48, -0.93, 2.24, 23.92, 8.17, 103.64, repro,
2018-11-22,-1.66, 0.78, 11.59, 28.83, 17.89, 227.18, repro,
2018-11-23,-0.70, -0.66, 6.71, 24.04, 8.21, 104.01, repro,
2018-11-24,0.11, -0.49, -2.12, 19.48, 6.61, 83.51, repro,
2018-11-25,-0.46, -0.09, 0.35, 23.40, 14.96, 190.29, repro,
2018-11-26,0.59, -0.96, -7.34, 14.63, 6.85, 83.75, repro,
2018-11-27,1.38, -2.56, -22.05, 28.99, 18.05, 229.27, repro,
2018-11-28,-0.30, 0.35, -3.99, 13.80, 6.16, 74.37, repro,
2018-11-29,-0.27, 0.19, 6.06, 8.15, 4.82, 48.18, repro,
2018-11-30,1.94, 0.79, -0.31, 11.03, 12.41, 154.89, repro,
2018-12-01,-1.32, -0.70, 17.61, 23.44, 14.97, 190.58, repro,
2018-12-02,-0.51, -0.75, 7.00, 13.39, 10.22, 92.97, repro,
2018-12-03,-0.58, 0.83, 4.05, 13.16, 10.12, 92.06, repro,
2018-12-04,-0.15, 0.55, 1.26, 11.29, 7.02, 68.38, repro,
2018-12-05,-1.31, -0.34, 1.37, 15.33, 7.70, 66.87, repro,
2018-12-06,-1.02, 0.92, -1.76, 13.31, 10.19, 92.68, repro,
2018-12-07,-0.23, -0.17, -10.97, 13.76, 10.59, 95.86, repro,
2018-12-08,-0.66, 0.73, 3.23, 13.25, 10.11, 91.77, repro,
2018-12-09,-0.19, 0.16, -1.07, 13.50, 5.99, 53.65, repro,
2018-12-10,1.23, -0.43, 1.11, 13.82, 10.51, 95.61, repro,
2018-12-11,0.63, -0.55, -3.25, 13.28, 10.10, 91.88, repro,
2018-12-12,1.13, -1.28, 0.70, 13.11, 10.07, 91.68, repro,
2018-12-13,-0.33, -0.74, 4.28, 13.41, 10.59, 96.16, repro,
2018-12-14,0.62, 0.27, 2.75, 13.57, 10.71, 97.24, repro,
2018-12-15,-0.64, 0.01, 5.94, 11.11, 6.92, 67.35, repro,
2018-12-16,0.84, -0.70, -3.10, 12.26, 4.63, 51.08, repro,
2018-12-17,-0.07, -1.18, 1.16, 30.91, 9.07, 117.19, repro,
2018-12-18,-0.11, -1.10, 1.48, 11.33, 5.91, 54.83, repro,
2018-12-19,-1.34, -0.36, 0.43, 14.72, 7.49, 64.88, repro,
2018-12-20,-0.45, -0.52, 3.14, 9.09, 5.85, 57.30, repro,
2018-12-21,-0.21, -0.55, 7.78, 28.38, 19.05, 242.04, repro,
2018-12-22,-0.71, 0.10, 2.16, 30.69, 8.96, 115.97, repro,
2018-12-23,0.09, -0.78, 0.45, 16.77, 8.57, 104.66, repro,
2018-12-24,-0.55, -0.52, 0.96, 16.50, 6.76, 81.81, repro,
2018-12-25,-0.36, -1.14, 5.41, 9.13, 5.64, 68.25, repro,
2018-12-26,-0.91, -1.65, 4.90, 11.24, 6.97, 83.82, repro,
2018-12-27,0.41, -1.46, 2.06, 10.34, 5.16, 61.91, repro,
2018-12-28,1.72, -1.64, 0.63, 11.09, 6.74, 80.86, repro,
2018-12-29,-0.40, -1.12, 2.19, 17.50, 4.47, 56.89, repro,
2018-12-30,0.13, -0.62, 1.85, 8.62, 6.15, 72.94, repro,
2018-12-31,-0.94, -1.12, 1.54, 10.63, 6.01, 78.69, repro,
2019-01-01,0.69, -1.67, 0.55, 7.46, 4.16, 49.50, repro,
2019-01-02,0.58, -1.40, 1.43, 7.50, 4.16, 49.61, repro,
2019-01-03,1.00, -0.72, 5.06, 17.16, 7.37, 62.18, repro,
2019-01-04,0.15, -0.77, 4.15, 8.03, 3.84, 50.02, repro,
2019-01-05,-0.04, -1.60, 3.37, 7.40, 7.07, 98.59, repro,
2019-01-06,0.14, -1.29, 5.82, 10.49, 5.91, 77.37, repro,
2019-01-07,-1.22, -1.13, -1.95, 7.80, 7.03, 97.88, repro,
2019-01-08,-0.17, -0.83, -4.06, 8.10, 5.97, 75.21, repro,
2019-01-09,-0.14, 0.56, -6.20, 11.08, 5.12, 37.70, repro,
2019-01-10,0.51, -0.34, -3.32, 16.57, 7.78, 64.61, repro,
2019-01-11,0.98, -0.79, 0.95, 16.03, 7.91, 63.00, repro,
2019-01-12,0.28, 0.06, 3.14, 8.21, 4.15, 51.03, repro,
2019-01-13,0.70, -1.71, 2.13, 8.29, 4.93, 45.51, repro,
2019-01-14,-1.54, -0.87, -1.87, 9.95, 4.91, 49.62, repro,
2019-01-15,0.79, -1.19, 1.41, 8.10, 4.75, 45.01, repro,
2019-01-16,0.90, -0.25, -12.49, 5.94, 3.60, 25.36, repro,
2019-01-17,1.45, -0.02, -2.75, 8.67, 5.57, 54.17, repro,
2019-01-18,1.30, -0.67, -1.78, 5.60, 3.43, 24.37, repro,
2019-01-19,0.38, -0.43, -7.90, 8.22, 4.78, 45.63, repro,
2019-01-20,0.83, 0.10, -2.00, 8.45, 4.93, 46.52, repro,
2019-01-21,0.71, -1.58, -3.14, 9.95, 7.44, 84.69, repro,
2019-01-22,1.18, -0.84, -5.39, 8.45, 4.91, 46.56, repro,
2019-01-23,1.26, -0.94, -0.26, 8.32, 4.91, 46.59, repro,
2019-01-24,0.46, -1.17, -3.58, 10.01, 4.81, 50.41, repro,
2019-01-25,-0.90, -0.31, -2.82, 11.31, 12.78, 130.74, repro,
2019-01-26,-0.04, -0.25, -1.18, 13.87, 12.53, 121.71, repro,
2019-01-27,-0.67, 0.49, -1.09, 11.47, 5.92, 55.17, supp6,
2019-01-28,-0.68, 0.41, -1.60, 16.83, 5.30, 63.62, supp6,
2019-01-29,-0.64, 0.13, -4.83, 14.65, 5.36, 66.11, supp6,
2019-01-30,-0.79, -0.44, -0.07, 11.28, 10.55, 117.16, supp6,
2019-01-31,-1.21, 0.82, -4.23, 13.73, 6.82, 73.20, supp6,
2019-02-01,-0.91, -0.16, 5.23, 13.21, 6.67, 71.72, supp6,
2019-02-02,-0.40, -0.08, 0.38, 11.96, 6.24, 71.21, supp6,
2019-02-03,-0.93, 0.35, 10.35, 10.44, 8.29, 88.08, sup6f,
2019-02-04,-0.07, 0.28, 2.66, 11.28, 5.54, 64.33, sup6f,
2019-02-05,-1.33, 0.11, 1.04, 13.35, 6.71, 72.48, sup6f,
2019-02-06,-1.26, 0.88, 2.24, 15.02, 5.14, 62.57, sup6f,
2019-02-07,-0.74, 1.21, 3.23, 17.23, 7.42, 62.26, sup6f,
2019-02-08,-0.61, 0.29, -1.17, 9.11, 5.43, 65.70, sup6f,
2019-02-09,-0.79, -0.29, -3.41, 9.38, 4.23, 46.51, sup6f,
2019-02-10,-1.09, -0.23, -3.85, 5.14, 3.08, 26.49, suppf,
2019-02-11,-1.33, 0.97, 0.87, 8.61, 4.01, 28.29, suppf,
2019-02-12,-1.02, 0.10, 1.44, 6.13, 3.22, 31.67, suppf,
2019-02-13,-1.38, -0.04, 8.29, 6.32, 3.58, 42.50, suppf,
2019-02-14,-1.60, 0.48, 13.89, 6.44, 5.02, 59.34, suppf,
2019-02-15,-0.56, 0.37, 4.92, 6.31, 4.87, 56.28, suppf,
2019-02-16,-0.13, 0.24, 3.56, 8.15, 4.73, 45.49, suppf,
2019-02-24,-0.66, -0.44, -3.32, 1.79, 1.57, 6.96, suppf,
2019-02-25,-0.66, -0.36, -1.69, 1.79, 1.57, 6.98, suppf,
2019-02-26,-1.66, -0.62, -6.42, 1.82, 1.63, 7.11, suppf,
2019-02-27,-1.28, 0.89, 0.47, 1.79, 1.57, 6.98, suppf,
2019-02-28,-0.49, 0.73, 4.05, 1.80, 1.58, 7.03, suppf,
2019-03-01,-0.86, -0.92, -3.62, 1.84, 1.59, 7.09, suppf,
2019-03-02,-1.12, 0.04, -1.94, 1.81, 1.58, 7.07, suppf,
2019-03-03,-0.97, 0.21, -3.77, 1.80, 1.57, 7.01, suppf,
2019-03-04,-0.74, 0.42, 0.32, 1.79, 1.57, 6.96, suppf,
2019-03-05,-2.16, -0.33, -3.32, 1.84, 1.67, 7.27, suppf,
2019-03-06,-2.78, 1.13, 2.38, 1.81, 1.59, 7.10, suppf,
2019-03-07,-1.36, 0.70, -1.23, 1.78, 1.57, 6.94, suppf,
2019-03-08,-0.00, 0.29, -0.20, 1.80, 1.56, 6.95, suppf,
2019-03-09,-1.21, 0.74, -3.07, 1.80, 1.57, 6.99, suppf,
2019-03-10,-1.55, -0.10, -2.90, 1.79, 1.58, 7.01, suppf,
2019-03-11,-1.34, -0.22, -5.53, 1.83, 1.61, 7.12, suppf,
2019-03-12,-0.70, -0.85, -3.57, 1.79, 1.56, 6.95, suppf,
2019-03-13,0.10, -0.18, -0.77, 1.82, 1.61, 7.10, suppf,
2019-03-14,-0.61, 0.33, -2.67, 1.80, 1.56, 6.99, suppf,
2019-03-15,-1.32, -0.38, -5.34, 1.82, 1.60, 7.11, suppf,
2019-03-16,-1.55, -0.06, -10.95, 1.79, 1.58, 7.05, suppf,
2019-03-17,-1.10, -0.52, -8.74, 1.79, 1.57, 6.99, suppf,
2019-03-18,-0.81, -0.41, -8.66, 1.79, 1.57, 7.01, suppf,
2019-03-19,-0.30, -0.38, -8.55, 1.82, 1.58, 7.08, suppf,
2019-03-20,-0.23, -1.03, -10.10, 1.81, 1.57, 7.02, suppf,
2019-03-21,-1.09, 0.82, -8.60, 1.93, 1.70, 7.46, suppf,
2019-03-22,-0.40, 0.09, -7.40, 1.87, 1.68, 7.43, suppf,
2019-03-23,-0.81, 0.29, -2.82, 1.84, 1.61, 7.16, suppf,
2019-03-24,-0.20, -0.13, -5.67, 1.86, 1.62, 7.29, suppf,
2019-03-25,-0.48, -0.65, -1.62, 2.12, 1.86, 8.11, suppf,
2019-03-26,-1.01, 0.13, -3.20, 1.99, 1.78, 7.72, suppf,
2019-03-27,-0.48, -0.59, -3.81, 2.07, 1.94, 8.56, suppf,
2019-03-28,-1.18, -0.34, -2.68, 1.89, 1.67, 7.29, suppf,
2019-03-29,-0.79, -0.12, -1.90, 1.85, 1.61, 7.19, suppf,
2019-03-30,-1.61, -0.33, -5.10, 1.95, 1.73, 7.70, suppf,
2019-03-31,0.09, 1.03, -4.48, 1.94, 1.67, 7.49, suppf,
2019-04-01,-0.66, 0.20, -1.53, 2.00, 1.75, 8.02, suppf,
2019-04-02,-1.13, 0.13, 0.69, 1.85, 1.69, 7.24, suppf,
2019-04-03,-1.34, -0.04, -0.45, 1.95, 1.72, 7.47, suppf,
2019-04-04,-1.26, 0.37, -3.53, 1.81, 1.57, 7.08, suppf,
2019-04-05,-1.02, 0.58, -0.39, 1.81, 1.57, 7.02, suppf,
2019-04-06,-2.50, 0.20, 4.42, 1.79, 1.56, 6.99, suppf,
2019-04-07,-0.47, 0.73, -3.23, 1.84, 1.58, 7.07, repro,
2019-04-08,-0.95, 0.17, -1.81, 1.79, 1.55, 6.96, repro,
2019-04-09,-1.84, 0.43, -4.28, 1.86, 1.61, 7.31, repro,
2019-04-10,-1.50, -0.68, 1.07, 1.85, 1.65, 7.33, repro,
2019-04-11,-1.22, -0.61, -0.96, 1.85, 1.64, 7.30, repro,
2019-04-12,-0.56, -0.87, 3.12, 1.83, 1.57, 7.17, repro,
2019-04-13,-0.18, -0.44, 2.78, 1.80, 1.56, 6.99, repro,
2019-04-14,-1.06, 0.58, 1.46, 1.83, 1.60, 7.12, repro,
2019-04-15,-0.68, -0.47, 4.89, 1.84, 1.62, 7.20, repro,
2019-04-16,-1.23, -0.41, 3.49, 1.80, 1.57, 6.99, repro,
2019-04-17,-0.92, -0.62, -3.68, 1.85, 1.59, 7.27, repro,
2019-04-18,-0.93, -0.41, -2.10, 1.80, 1.57, 7.02, repro,
2019-04-19,-1.50, 0.40, 3.05, 1.87, 1.59, 7.26, repro,
2019-04-20,-1.59, -0.51, 7.12, 1.79, 1.56, 6.96, repro,
2019-04-21,-0.62, -0.11, 4.88, 1.89, 1.77, 7.38, repro,
2019-04-22,-0.84, -0.95, 0.41, 1.79, 1.56, 6.96, repro,
2019-04-23,-0.42, -0.61, -3.43, 1.80, 1.56, 6.96, repro,
2019-04-24,-1.36, 0.23, 3.36, 1.86, 1.62, 7.17, repro,
2019-04-25,-1.72, -0.25, 0.53, 1.94, 1.84, 7.63, repro,
2019-04-26,-1.62, 0.02, 1.98, 1.80, 1.57, 6.99, repro,
2019-04-27,-1.31, -0.16, 3.60, 1.81, 1.56, 6.99, repro,
2019-04-28,-0.99, -0.14, 3.72, 1.80, 1.56, 6.97, repro,
2019-04-29,-1.77, -1.44, 7.91, 1.81, 1.58, 7.04, repro,
2019-04-30,-1.76, -0.03, 3.61, 1.79, 1.57, 6.98, repro,
2019-05-01,-2.16, -0.65, 2.24, 1.79, 1.57, 6.99, repro,
2019-05-02,-1.17, -0.21, -1.21, 1.82, 1.62, 7.07, repro,
2019-05-03,-1.07, -1.42, 2.35, 1.82, 1.62, 7.08, repro,
2019-05-04,-1.42, 0.01, 1.83, 1.80, 1.57, 7.01, repro,
2019-05-05,-2.06, -0.89, 1.65, 1.79, 1.57, 7.00, suppf,
2019-05-06,-2.60, -1.91, 12.64, 1.82, 1.59, 7.16, suppf,
2019-05-07,-2.78, -0.79, 3.29, 1.89, 1.64, 7.31, suppf,
2019-05-08,-1.53, -0.26, 2.12, 1.84, 1.59, 7.10, suppf,
2019-05-09,-0.93, -0.73, 5.26, 1.80, 1.56, 6.97, suppf,
2019-05-10,-0.93, -0.43, -2.44, 1.80, 1.56, 6.98, suppf,
2019-05-11,-0.27, -1.40, 2.75, 1.81, 1.57, 7.03, suppf,
2019-05-12,-1.33, -0.47, 4.37, 1.79, 1.56, 6.97, suppf,
2019-05-13,-1.56, -0.92, 9.09, 1.79, 1.56, 7.00, suppf,
2019-05-14,-1.33, -0.55, 4.98, 1.81, 1.57, 7.06, suppf,
2019-05-15,-1.40, 0.23, 3.21, 1.79, 1.56, 6.98, suppf,
2019-05-16,-0.90, -0.55, 7.07, 1.80, 1.56, 6.99, suppf,
2019-05-17,-1.14, -0.41, 7.31, 1.80, 1.56, 7.00, suppf,
2019-05-18,-2.60, -0.68, 9.13, 1.82, 1.62, 7.10, suppf,
2019-05-19,-2.62, -1.14, 10.13, 1.81, 1.57, 7.05, suppf,
2019-05-20,0.17, -0.76, 10.18, 1.79, 1.55, 6.97, suppf,
2019-05-21,0.03, -0.49, 5.42, 1.82, 1.61, 7.12, suppf,
2019-05-22,-0.61, 0.10, 5.70, 1.83, 1.62, 7.15, suppf,
2019-05-23,-1.48, -0.27, 3.84, 1.79, 1.55, 6.94, suppf,
2019-05-24,-1.97, 0.29, 3.48, 1.79, 1.56, 6.97, suppf,
2019-05-25,-1.72, 0.08, 4.49, 1.79, 1.56, 6.98, suppf,
2019-05-26,-1.40, 0.83, 1.58, 1.78, 1.56, 6.97, suppf,
2019-05-27,-0.06, -1.19, 4.32, 1.89, 1.65, 7.37, repro,
2019-05-28,-1.21, -0.02, 2.29, 1.81, 1.56, 7.02, suppf,
2019-05-29,-1.95, 0.20, 9.00, 1.81, 1.57, 7.09, suppf,
2019-05-30,-3.07, 0.80, 8.90, 1.79, 1.56, 6.98, suppf,
2019-05-31,-2.22, -0.10, 4.67, 1.82, 1.59, 7.08, suppf,
2019-06-01,-1.81, 0.16, 8.38, 1.79, 1.56, 7.02, suppf,
2019-06-02,-1.28, 0.34, 2.67, 1.81, 1.57, 7.07, final,
2019-06-03,-1.10, -0.04, 10.25, 1.84, 1.59, 7.16, final,
2019-06-04,-1.91, -0.04, 8.01, 1.80, 1.55, 6.99, final,
2019-06-05,-1.64, -0.43, 5.73, 2.22, 1.95, 8.55, final,
2019-06-06,-1.25, 1.09, 10.69, 1.83, 1.61, 7.21, final,
2019-06-07,-2.13, 0.49, 10.07, 2.45, 2.21, 9.72, final,
2019-06-08,-1.34, -0.16, 13.06, 2.21, 1.95, 8.65, final,
2019-06-09,-1.13, -0.28, 2.15, 1.80, 1.56, 7.00, final,
2019-06-10,-1.07, 1.07, -2.76, 1.83, 1.59, 7.08, final,
2019-06-11,-1.38, 0.66, 3.98, 1.83, 1.58, 7.10, final,
2019-06-12,-1.18, 1.18, -1.93, 1.84, 1.58, 7.08, final,
2019-06-13,-1.39, 1.10, 1.53, 1.85, 1.58, 7.09, final,
2019-06-14,-0.71, 0.58, 7.55, 1.97, 1.71, 7.73, final,
2019-06-15,-1.82, 0.59, 6.59, 1.92, 1.65, 7.50, final,
2019-06-16,-2.65, 0.72, 6.69, 2.01, 1.73, 7.69, suppf,
2019-06-17,-1.88, 0.11, 7.33, 1.86, 1.64, 7.26, suppf,
2019-06-18,-0.41, -0.11, 3.85, 1.84, 1.58, 7.10, suppf,
2019-06-19,-0.84, 1.01, 4.50, 1.99, 1.70, 7.58, suppf,
2019-06-20,-1.09, -0.64, 10.70, 1.95, 1.68, 7.43, suppf,
2019-06-21,-2.73, -0.14, 13.90, 2.36, 2.08, 9.63, suppf,
2019-06-22,-0.84, -1.27, 13.84, 1.89, 1.66, 7.37, suppf,
2019-06-23,-1.81, 0.86, 13.22, 1.86, 1.60, 7.22, suppf,
2019-06-24,-1.03, -0.15, 9.39, 1.82, 1.58, 7.07, suppf,
2019-06-25,-1.77, 0.21, 10.58, 1.83, 1.59, 7.11, suppf,
2019-06-26,-1.69, -0.23, 2.48, 1.84, 1.59, 7.13, suppf,
2019-06-27,-1.33, -0.06, 6.46, 2.06, 1.74, 7.95, suppf,
2019-06-28,-0.82, -0.11, 3.54, 2.24, 1.98, 8.96, suppf,
2019-06-29,-2.47, 1.15, 6.03, 1.94, 1.68, 7.62, suppf,
2019-06-30,-0.77, -0.06, 2.24, 1.90, 1.68, 7.81, suppf,
2019-07-01,-2.49, 0.59, 6.03, 1.81, 1.58, 7.13, suppf,
2019-07-02,-0.75, 0.65, 3.39, 1.82, 1.58, 7.17, suppf,
2019-07-03,-2.53, -0.90, 8.08, 1.81, 1.56, 7.07, suppf,
2019-07-04,-1.07, 0.01, 4.95, 1.82, 1.58, 7.09, suppf,
2019-07-05,-1.27, 0.18, 0.48, 1.78, 1.57, 7.04, suppf,
2019-07-06,-0.32, 0.77, 4.25, 1.80, 1.56, 7.05, suppf,
2019-07-07,0.41, -1.19, 5.10, 1.84, 1.62, 7.16, repro,
2019-07-08,0.17, -0.41, 7.02, 1.81, 1.58, 7.06, repro,
2019-07-09,0.05, -0.47, 4.27, 1.81, 1.57, 7.06, repro,
2019-07-10,0.75, -0.33, 2.74, 1.80, 1.58, 7.07, repro,
2019-07-11,1.27, -0.23, 0.83, 1.81, 1.59, 7.11, repro,
2019-07-12,-0.00, -0.22, 4.73, 1.88, 1.66, 7.40, repro,
2019-07-13,0.12, -1.82, 8.00, 1.88, 1.64, 7.28, repro,
2019-07-14,-0.23, -0.58, 0.75, 1.85, 1.59, 7.16, final,
2019-07-15,0.60, -0.46, 8.19, 1.84, 1.59, 7.19, final,
2019-07-16,-0.43, 0.46, 2.09, 1.83, 1.59, 7.12, final,
2019-07-17,0.07, 0.70, 9.02, 1.88, 1.69, 7.42, final,
2019-07-18,0.62, -0.16, 7.76, 1.84, 1.63, 7.28, final,
2019-07-19,0.71, -0.80, 4.86, 1.90, 1.63, 7.33, final,
2019-07-20,0.74, -1.30, -0.42, 1.86, 1.62, 7.38, final,
2019-07-21,0.87, -0.24, 5.62, 1.95, 1.72, 7.66, final,
2019-07-22,0.07, -1.13, 2.49, 1.80, 1.60, 7.19, final,
2019-07-23,-0.77, 0.52, 1.22, 1.83, 1.64, 7.26, final,
2019-07-24,-0.18, 0.71, 2.67, 1.88, 1.70, 7.49, final,
2019-07-25,-0.76, -1.34, 2.79, 1.82, 1.59, 7.20, final,
2019-07-26,-0.20, -0.02, -1.45, 1.93, 1.72, 7.61, final,
2019-07-27,-0.20, 1.66, 2.03, 1.84, 1.63, 7.39, final,
2019-07-28,0.55, 0.53, 4.69, 1.82, 1.61, 7.21, final,
2019-07-29,0.29, 0.98, -2.53, 1.84, 1.58, 7.26, final,
2019-07-30,0.47, -0.92, 0.42, 1.80, 1.56, 7.07, final,
2019-07-31,-1.02, -0.37, 0.64, 1.82, 1.62, 7.19, final,
2019-08-01,0.84, -1.02, 0.70, 1.79, 1.56, 7.08, final,
2019-08-02,0.18, 0.50, 1.48, 1.84, 1.63, 7.15, final,
2019-08-03,-0.69, 0.35, 2.94, 1.79, 1.56, 7.01, final,
2019-08-04,0.11, 0.11, 4.06, 1.80, 1.57, 7.10, final,
2019-08-05,0.38, -0.06, 3.87, 1.85, 1.58, 7.25, final,
2019-08-06,-1.22, -0.49, 7.09, 1.84, 1.65, 7.31, final,
2019-08-07,-1.00, 0.94, 3.35, 1.89, 1.62, 7.42, final,
2019-08-08,-0.35, -1.32, 2.88, 1.89, 1.63, 7.41, final,
2019-08-09,0.84, -0.64, 0.72, 1.87, 1.61, 7.31, final,
2019-08-10,-0.45, -0.18, 3.70, 1.89, 1.64, 7.32, final,
2019-08-11,-0.83, -0.51, 6.34, 1.89, 1.64, 7.34, final,
2019-08-12,-0.72, -0.54, -0.45, 1.78, 1.56, 7.04, final,
2019-08-13,-0.31, 0.11, 4.03, 1.89, 1.66, 7.35, final,
2019-08-14,-1.37, -0.21, 2.42, 1.83, 1.60, 7.18, final,
2019-08-15,-0.59, -0.22, 13.85, 1.79, 1.57, 7.08, final,
2019-08-16,-1.19, 0.11, 10.26, 1.81, 1.62, 7.22, final,
2019-08-17,-1.30, -0.66, 8.58, 1.79, 1.57, 7.06, final,
2019-08-18,-2.09, -0.06, 8.21, 1.84, 1.65, 7.33, final,
2019-08-19,-0.22, -0.25, 13.29, 1.83, 1.62, 7.32, final,
2019-08-20,-1.39, 0.92, 5.25, 1.79, 1.57, 7.06, final,
2019-08-21,-0.45, -0.40, 9.77, 1.80, 1.58, 7.13, final,
2019-08-22,-1.21, -1.09, 4.11, 1.81, 1.60, 7.20, final,
2019-08-23,-1.25, -0.32, 6.56, 1.82, 1.58, 7.09, final,
2019-08-24,-1.19, -0.24, 7.97, 1.80, 1.57, 7.08, final,
2019-08-25,-0.63, 0.82, 4.16, 1.80, 1.58, 7.12, final,
2019-08-26,-2.12, -0.77, 7.10, 1.79, 1.57, 7.10, final,
2019-08-27,-1.10, -0.20, 4.39, 1.80, 1.57, 7.08, final,
2019-08-28,-1.50, -0.22, 2.44, 1.83, 1.58, 7.11, final,
2019-08-29,-2.42, -0.02, 3.46, 1.86, 1.57, 7.24, final,
2019-08-30,-0.66, 0.45, 0.55, 1.93, 1.67, 7.71, final,
2019-08-31,-2.16, -0.48, 4.10, 1.79, 1.56, 7.05, final,
2019-09-01,-0.84, -0.65, 8.88, 1.79, 1.56, 7.06, final,
2019-09-02,-0.90, -1.41, -2.03, 1.79, 1.56, 7.06, final,
2019-09-03,-2.23, -0.71, 3.65, 1.80, 1.55, 7.05, final,
2019-09-04,-1.72, -1.28, -3.77, 1.85, 1.64, 7.37, final,
2019-09-05,0.39, 0.41, -0.49, 1.86, 1.64, 7.49, final,
2019-09-06,-1.21, 0.39, -1.53, 1.80, 1.61, 7.15, final,
2019-09-07,-0.80, 0.16, -4.79, 1.79, 1.57, 7.03, final,
2019-09-08,-0.97, -0.93, 0.29, 1.82, 1.59, 7.17, final,
2019-09-09,-2.12, -0.50, 6.59, 1.82, 1.62, 7.24, final,
2019-09-10,-2.12, -0.41, 7.74, 1.86, 1.63, 7.36, final,
2019-09-11,-1.78, -0.18, 5.06, 1.80, 1.56, 7.08, final,
2019-09-12,-1.17, 0.56, 2.16, 1.82, 1.60, 7.20, final,
2019-09-13,-1.10, -0.39, -0.46, 1.81, 1.59, 7.17, final,
2019-09-14,-1.96, 0.11, 0.25, 1.79, 1.57, 7.07, final,
2019-09-15,-1.85, 0.22, 1.73, 1.81, 1.57, 7.12, final,
2019-09-16,-1.89, -0.34, 7.64, 1.94, 1.71, 7.70, final,
2019-09-17,-2.96, 1.84, 8.08, 1.84, 1.62, 7.25, final,
2019-09-18,-1.92, 2.09, 3.26, 1.87, 1.63, 7.38, final,
2019-09-19,-0.89, 0.40, 6.98, 1.81, 1.60, 7.19, final,
2019-09-20,-0.10, -0.31, 7.29, 1.93, 1.67, 7.60, final,
2019-09-21,-0.57, 0.38, 5.73, 1.90, 1.60, 7.39, final,
2019-09-22,-1.23, 0.22, 0.37, 2.96, 2.68, 12.52, rapid,
2019-09-23,-1.59, 0.34, 3.83, 2.93, 2.63, 12.40, rapid,
2019-09-24,-0.20, 0.37, 0.80, 2.93, 2.64, 12.42, rapid,
2019-09-25,-0.64, 0.58, 5.30, 2.94, 2.65, 12.54, rapid,
2019-09-26,-0.90, 0.05, 9.68, 2.97, 2.69, 12.71, rapid,
2019-09-27,-1.66, -0.47, 9.61, 2.87, 2.57, 12.07, rapid,
2019-09-28,-1.90, -1.10, 7.97, 2.87, 2.58, 12.10, rapid,
2019-09-29,-1.38, -0.02, 7.98, 2.94, 2.65, 12.42, rapid,
2019-09-30,-1.22, -0.40, 3.92, 2.88, 2.63, 12.31, rapid,
2019-10-01,-0.22, 0.57, 5.71, 2.88, 2.59, 12.17, rapid,
2019-10-02,-0.56, 0.79, 1.72, 2.94, 2.63, 12.31, rapid,
2019-10-03,-0.83, -0.19, 0.06, 3.02, 2.64, 12.66, rapid,
2019-10-04,-1.45, -0.27, -5.04, 3.10, 2.83, 12.95, rapid,
2019-10-05,-1.82, -0.14, -1.63, 3.01, 2.76, 12.88, rapid,
2019-10-07,-0.49, 0.13, 4.28, 2.90, 2.63, 12.24, rapid,
